Location: Caltech
(34.1382°N, 118.1253°W)
Time: 08:04:44
(UTC-07:00)

Cosmos 2219 Rocket - Visible Passes

Search period start: 04 May 2015 00:00
Search period end: 14 May 2015 00:00
Orbit: 828 x 846 km, 71.0° (Epoch: 03 May)

Date Brightness Start Highest point End Pass type
(mag) Time Alt. Az. Time Alt. Az. Time Alt. Az.
04 May 2.0 03:41:55 70° SW 03:42:33 83° WNW 03:48:11 10° NNE visible
04 May 4.3 05:26:47 10° WNW 05:27:32 10° NW 05:27:55 10° NW visible
05 May 2.0 03:26:10 87° SW 03:26:15 89° W 03:31:53 10° NNE visible
05 May 4.2 05:09:23 10° WNW 05:11:09 11° NW 05:12:34 10° NW visible
06 May 2.2 03:10:23 76° NE 03:10:23 76° NE 03:15:35 10° NNE visible
06 May 4.2 04:52:26 10° WNW 04:54:46 12° NW 04:56:47 10° NNW visible
07 May 2.5 02:54:33 63° NE 02:54:33 63° NE 02:59:16 10° NNE visible
07 May 4.1 04:36:16 11° WNW 04:38:23 13° NW 04:40:50 10° NNW visible
08 May 2.8 02:38:40 52° NE 02:38:40 52° NE 02:42:58 10° NNE visible
08 May 4.1 04:20:24 13° WNW 04:22:00 14° NW 04:24:50 10° NNW visible
09 May 3.1 02:22:46 44° NE 02:22:46 44° NE 02:26:38 10° NNE visible
09 May 4.0 04:04:29 15° WNW 04:05:38 16° NW 04:08:47 10° NNW visible
10 May 3.4 02:06:49 37° NE 02:06:49 37° NE 02:10:18 10° NNE visible
10 May 3.9 03:48:33 17° WNW 03:49:16 17° NW 03:52:42 10° NNW visible
11 May 3.6 01:50:51 32° NE 01:50:51 32° NE 01:53:58 10° NNE visible
11 May 3.9 03:32:34 18° WNW 03:32:54 18° NW 03:36:35 10° NNW visible
12 May 3.8 01:34:50 28° NE 01:34:50 28° NE 01:37:37 10° NNE visible
12 May 3.9 03:16:33 20° NW 03:16:33 20° NW 03:20:27 10° NNW visible
13 May 4.0 01:18:48 25° NE 01:18:48 25° NE 01:21:16 10° NE visible
13 May 3.9 03:00:30 21° NW 03:00:30 21° NW 03:04:18 10° N visible
